Time,TemperatureF,DewpointF,PressureIn,WindDirection,WindDirectionDegrees,WindSpeedMPH,WindSpeedGustMPH,Humidity,HourlyPrecipIn,Conditions,Clouds,dailyrainin,SoftwareType,DateUTC
2013-05-26 00:01:00,48.5,48.0,30.09,SE,134,15.0,24.0,98,0.00,,,0.00,weatherlink.com 1.10,2013-05-26 05:01:00,
2013-05-26 00:16:00,48.4,48.0,30.09,ESE,112,18.0,30.0,98,0.00,,,0.00,weatherlink.com 1.10,2013-05-26 05:16:00,
2013-05-26 00:31:00,48.5,48.0,30.07,East,100,23.0,24.0,98,0.00,,,0.00,weatherlink.com 1.10,2013-05-26 05:31:00,
2013-05-26 00:46:00,48.5,48.0,30.07,ESE,110,18.0,19.0,98,0.00,,,0.00,weatherlink.com 1.10,2013-05-26 05:46:00,
2013-05-26 01:01:00,48.4,48.0,30.09,East,100,20.0,23.0,98,0.00,,,0.00,weatherlink.com 1.10,2013-05-26 06:01:00,
2013-05-26 01:16:00,48.3,48.0,30.05,ESE,118,15.0,25.0,98,0.05,,,0.05,weatherlink.com 1.10,2013-05-26 06:16:00,
2013-05-26 01:31:00,48.2,48.0,30.08,East,93,15.0,19.0,98,0.10,,,0.10,weatherlink.com 1.10,2013-05-26 06:31:00,
2013-05-26 01:46:00,48.3,48.0,30.07,SSE,167,5.0,15.0,98,0.10,,,0.10,weatherlink.com 1.10,2013-05-26 06:46:00,
2013-05-26 02:01:00,48.3,48.0,30.06,East,86,12.0,15.0,98,0.12,,,0.12,weatherlink.com 1.10,2013-05-26 07:01:00,
2013-05-26 02:16:00,48.2,48.0,30.07,East,81,12.0,16.0,98,0.08,,,0.13,weatherlink.com 1.10,2013-05-26 07:16:00,
2013-05-26 02:31:00,48.2,48.0,30.03,East,90,12.0,20.0,98,0.05,,,0.15,weatherlink.com 1.10,2013-05-26 07:31:00,
2013-05-26 02:46:00,48.3,48.0,30.06,East,89,10.0,13.0,98,0.05,,,0.15,weatherlink.com 1.10,2013-05-26 07:46:00,
2013-05-26 03:01:00,48.4,48.0,30.09,WSW,250,6.0,11.0,98,0.04,,,0.16,weatherlink.com 1.10,2013-05-26 08:01:00,
2013-05-26 03:16:00,48.5,48.0,30.10,ESE,121,4.0,9.0,98,0.05,,,0.18,weatherlink.com 1.10,2013-05-26 08:16:00,
2013-05-26 03:31:00,48.5,48.0,30.10,SE,140,4.0,13.0,98,0.07,,,0.22,weatherlink.com 1.10,2013-05-26 08:31:00,
2013-05-26 03:46:00,48.5,48.0,30.08,East,84,9.0,16.0,98,0.12,,,0.27,weatherlink.com 1.10,2013-05-26 08:46:00,
2013-05-26 04:01:00,48.4,48.0,30.08,ESE,106,6.0,13.0,98,0.19,,,0.35,weatherlink.com 1.10,2013-05-26 09:01:00,
2013-05-26 04:16:00,48.3,48.0,30.02,ENE,61,21.0,27.0,98,0.28,,,0.46,weatherlink.com 1.10,2013-05-26 09:16:00,
2013-05-26 04:31:00,48.3,48.0,30.02,ESE,122,4.0,23.0,98,0.26,,,0.48,weatherlink.com 1.10,2013-05-26 09:31:00,
2013-05-26 04:46:00,48.5,48.0,30.10,SSE,153,19.0,21.0,98,0.23,,,0.51,weatherlink.com 1.10,2013-05-26 09:46:00,
2013-05-26 05:01:00,48.7,48.0,30.03,ENE,71,8.0,18.0,98,0.25,,,0.60,weatherlink.com 1.10,2013-05-26 10:01:00,
2013-05-26 05:16:00,48.7,48.0,30.06,SE,141,10.0,21.0,98,0.21,,,0.67,weatherlink.com 1.10,2013-05-26 10:16:00,
2013-05-26 05:31:00,48.6,48.0,30.03,SE,128,14.0,19.0,98,0.23,,,0.71,weatherlink.com 1.10,2013-05-26 10:31:00,
2013-05-26 05:46:00,48.6,48.0,30.05,ENE,63,15.0,24.0,98,0.25,,,0.76,weatherlink.com 1.10,2013-05-26 10:46:00,
2013-05-26 06:01:00,48.5,48.0,30.00,East,80,22.0,23.0,98,0.21,,,0.81,weatherlink.com 1.10,2013-05-26 11:01:00,
2013-05-26 06:16:00,48.5,48.0,30.05,NE,42,5.0,19.0,98,0.18,,,0.85,weatherlink.com 1.10,2013-05-26 11:16:00,
2013-05-26 06:32:00,48.6,48.0,30.09,East,98,3.0,15.0,98,0.15,,,0.86,weatherlink.com 1.10,2013-05-26 11:32:00,
2013-05-26 06:47:00,48.7,48.0,30.10,ENE,59,4.0,9.0,98,0.12,,,0.88,weatherlink.com 1.10,2013-05-26 11:47:00,
2013-05-26 07:02:00,48.8,48.0,30.12,SE,128,3.0,5.0,98,0.08,,,0.89,weatherlink.com 1.10,2013-05-26 12:02:00,
2013-05-26 07:17:00,48.8,48.0,30.11,ENE,64,4.0,5.0,98,0.04,,,0.89,weatherlink.com 1.10,2013-05-26 12:17:00,
2013-05-26 07:32:00,48.7,48.0,30.05,ENE,67,10.0,16.0,98,0.04,,,0.90,weatherlink.com 1.10,2013-05-26 12:32:00,
2013-05-26 07:47:00,48.7,48.0,30.00,ESE,112,14.0,24.0,98,0.03,,,0.91,weatherlink.com 1.10,2013-05-26 12:47:00,
2013-05-26 08:02:00,48.8,48.0,29.98,ESE,103,12.0,29.0,98,0.02,,,0.91,weatherlink.com 1.10,2013-05-26 13:02:00,
2013-05-26 08:17:00,49.0,49.0,29.98,ESE,102,17.0,24.0,98,0.01,,,0.91,weatherlink.com 1.10,2013-05-26 13:17:00,
2013-05-26 08:32:00,49.1,49.0,30.00,East,99,19.0,31.0,98,0.01,,,0.91,weatherlink.com 1.10,2013-05-26 13:32:00,
2013-05-26 08:47:00,49.2,49.0,30.01,SE,145,7.0,24.0,98,0.00,,,0.91,weatherlink.com 1.10,2013-05-26 13:47:00,
2013-05-26 09:02:00,49.4,49.0,30.02,SE,134,10.0,15.0,98,0.00,,,0.91,weatherlink.com 1.10,2013-05-26 14:02:00,
2013-05-26 09:17:00,49.8,49.0,30.04,East,96,12.0,13.0,98,0.00,,,0.91,weatherlink.com 1.10,2013-05-26 14:17:00,
2013-05-26 09:32:00,50.2,50.0,30.03,SE,124,10.0,12.0,98,0.00,,,0.91,weatherlink.com 1.10,2013-05-26 14:32:00,
2013-05-26 09:47:00,50.6,50.0,30.03,SE,138,7.0,12.0,97,0.00,,,0.91,weatherlink.com 1.10,2013-05-26 14:47:00,
2013-05-26 10:02:00,50.8,50.0,30.03,ESE,122,5.0,12.0,97,0.00,,,0.91,weatherlink.com 1.10,2013-05-26 15:02:00,
2013-05-26 10:17:00,51.0,50.0,30.04,ESE,103,6.0,13.0,97,0.00,,,0.91,weatherlink.com 1.10,2013-05-26 15:17:00,
2013-05-26 10:32:00,51.0,50.0,30.08,ENE,71,6.0,12.0,97,0.00,,,0.91,weatherlink.com 1.10,2013-05-26 15:32:00,
2013-05-26 10:47:00,51.0,50.0,30.07,ENE,67,10.0,11.0,97,0.00,,,0.91,weatherlink.com 1.10,2013-05-26 15:47:00,
2013-05-26 11:02:00,51.1,51.0,30.09,East,84,5.0,9.0,98,0.00,,,0.91,weatherlink.com 1.10,2013-05-26 16:02:00,
2013-05-26 11:17:00,51.4,51.0,30.08,ENE,68,5.0,8.0,98,0.00,,,0.91,weatherlink.com 1.10,2013-05-26 16:17:00,
2013-05-26 11:32:00,51.8,51.0,30.07,ESE,106,7.0,11.0,97,0.00,,,0.91,weatherlink.com 1.10,2013-05-26 16:32:00,
2013-05-26 11:47:00,51.8,51.0,30.07,ENE,77,6.0,14.0,97,0.00,,,0.91,weatherlink.com 1.10,2013-05-26 16:47:00,
2013-05-26 12:02:00,51.5,51.0,30.06,ENE,71,6.0,19.0,97,0.00,,,0.91,weatherlink.com 1.10,2013-05-26 17:02:00,
2013-05-26 12:17:00,51.4,51.0,30.05,ENE,77,8.0,15.0,97,0.00,,,0.91,weatherlink.com 1.10,2013-05-26 17:17:00,
2013-05-26 12:32:00,51.3,51.0,30.06,ENE,77,9.0,9.0,97,0.00,,,0.91,weatherlink.com 1.10,2013-05-26 17:32:00,
2013-05-26 12:47:00,51.6,51.0,30.06,ESE,103,4.0,15.0,97,0.00,,,0.91,weatherlink.com 1.10,2013-05-26 17:47:00,
2013-05-26 13:02:00,52.0,51.0,30.05,East,80,5.0,13.0,97,0.00,,,0.91,weatherlink.com 1.10,2013-05-26 18:02:00,
2013-05-26 13:17:00,52.2,51.0,30.05,SE,125,6.0,12.0,96,0.00,,,0.91,weatherlink.com 1.10,2013-05-26 18:17:00,
2013-05-26 13:32:00,52.3,51.0,30.02,SE,125,13.0,18.0,96,0.00,,,0.91,weatherlink.com 1.10,2013-05-26 18:32:00,
2013-05-26 13:47:00,52.6,52.0,29.99,ESE,103,9.0,21.0,96,0.00,,,0.91,weatherlink.com 1.10,2013-05-26 18:47:00,
2013-05-26 14:02:00,53.5,52.0,29.97,East,81,11.0,20.0,95,0.00,,,0.91,weatherlink.com 1.10,2013-05-26 19:02:00,
2013-05-26 14:17:00,55.1,54.0,30.02,WNW,288,2.0,18.0,94,0.00,,,0.91,weatherlink.com 1.10,2013-05-26 19:17:00,
2013-05-26 14:32:00,55.7,54.0,30.04,NE,54,4.0,6.0,93,0.00,,,0.91,weatherlink.com 1.10,2013-05-26 19:32:00,
2013-05-26 14:47:00,55.8,54.0,30.02,East,84,10.0,10.0,93,0.00,,,0.91,weatherlink.com 1.10,2013-05-26 19:47:00,
2013-05-26 15:02:00,55.9,54.0,30.04,SSE,150,6.0,8.0,93,0.00,,,0.91,weatherlink.com 1.10,2013-05-26 20:02:00,
2013-05-26 15:17:00,56.0,54.0,29.98,ENE,71,9.0,14.0,94,0.00,,,0.91,weatherlink.com 1.10,2013-05-26 20:17:00,
2013-05-26 15:32:00,56.2,55.0,29.94,ESE,104,4.0,20.0,94,0.00,,,0.91,weatherlink.com 1.10,2013-05-26 20:32:00,
2013-05-26 15:47:00,56.5,55.0,29.92,ESE,117,15.0,23.0,94,0.00,,,0.91,weatherlink.com 1.10,2013-05-26 20:47:00,
2013-05-26 16:02:00,56.6,55.0,29.98,South,170,13.0,28.0,94,0.00,,,0.91,weatherlink.com 1.10,2013-05-26 21:02:00,
2013-05-26 16:17:00,56.3,55.0,29.95,East,91,14.0,22.0,94,0.00,,,0.91,weatherlink.com 1.10,2013-05-26 21:17:00,
2013-05-26 16:32:00,56.5,55.0,29.94,ESE,109,6.0,20.0,94,0.00,,,0.91,weatherlink.com 1.10,2013-05-26 21:32:00,
2013-05-26 16:47:00,56.1,55.0,29.95,East,80,8.0,14.0,95,0.00,,,0.91,weatherlink.com 1.10,2013-05-26 21:47:00,
2013-05-26 17:02:00,55.7,54.0,29.97,ESE,113,8.0,19.0,95,0.00,,,0.91,weatherlink.com 1.10,2013-05-26 22:02:00,
2013-05-26 17:17:00,55.4,54.0,29.98,East,96,9.0,19.0,95,0.00,,,0.91,weatherlink.com 1.10,2013-05-26 22:17:00,
2013-05-26 17:32:00,55.1,54.0,29.99,ESE,102,11.0,16.0,95,0.00,,,0.91,weatherlink.com 1.10,2013-05-26 22:32:00,
2013-05-26 17:47:00,54.4,53.0,29.99,NNE,32,12.0,20.0,96,0.00,,,0.91,weatherlink.com 1.10,2013-05-26 22:47:00,
2013-05-26 18:02:00,54.3,53.0,29.99,ENE,72,11.0,20.0,96,0.00,,,0.91,weatherlink.com 1.10,2013-05-26 23:02:00,
2013-05-26 18:18:00,53.8,53.0,30.00,East,82,19.0,19.0,96,0.00,,,0.91,weatherlink.com 1.10,2013-05-26 23:18:00,
2013-05-26 18:33:00,53.3,53.0,30.00,ENE,71,10.0,21.0,97,0.00,,,0.91,weatherlink.com 1.10,2013-05-26 23:33:00,
2013-05-26 18:48:00,52.9,52.0,30.00,ESE,116,8.0,20.0,97,0.00,,,0.91,weatherlink.com 1.10,2013-05-26 23:48:00,
2013-05-26 19:03:00,52.6,52.0,29.99,ENE,69,8.0,23.0,98,0.00,,,0.91,weatherlink.com 1.10,2013-05-27 00:03:00,
2013-05-26 19:19:00,52.5,52.0,29.99,East,91,8.0,22.0,98,0.00,,,0.91,weatherlink.com 1.10,2013-05-27 00:19:00,
2013-05-26 19:33:00,52.5,52.0,29.97,East,99,10.0,22.0,98,0.00,,,0.91,weatherlink.com 1.10,2013-05-27 00:33:00,
2013-05-26 19:48:00,52.6,52.0,29.98,ENE,70,18.0,22.0,98,0.00,,,0.91,weatherlink.com 1.10,2013-05-27 00:48:00,
2013-05-26 20:03:00,52.4,52.0,29.99,East,99,11.0,18.0,98,0.00,,,0.91,weatherlink.com 1.10,2013-05-27 01:03:00,
2013-05-26 20:19:00,52.2,52.0,30.00,ESE,103,8.0,21.0,98,0.00,,,0.91,weatherlink.com 1.10,2013-05-27 01:19:00,
2013-05-26 20:33:00,52.3,52.0,30.01,ENE,58,8.0,20.0,97,0.00,,,0.91,weatherlink.com 1.10,2013-05-27 01:33:00,
2013-05-26 20:48:00,52.4,52.0,30.00,East,91,14.0,22.0,97,0.00,,,0.91,weatherlink.com 1.10,2013-05-27 01:48:00,
2013-05-26 21:03:00,52.3,52.0,30.02,ENE,73,13.0,17.0,97,0.00,,,0.91,weatherlink.com 1.10,2013-05-27 02:03:00,
2013-05-26 21:18:00,52.3,52.0,30.03,East,84,4.0,14.0,97,0.01,,,0.92,weatherlink.com 1.10,2013-05-27 02:18:00,
2013-05-26 21:32:00,52.2,51.0,30.02,East,80,11.0,17.0,97,0.03,,,0.94,weatherlink.com 1.10,2013-05-27 02:32:00,
2013-05-26 21:48:00,52.0,51.0,30.01,ESE,108,13.0,22.0,97,0.05,,,0.96,weatherlink.com 1.10,2013-05-27 02:48:00,
2013-05-26 22:03:00,51.6,51.0,29.94,ENE,75,16.0,19.0,97,0.07,,,0.99,weatherlink.com 1.10,2013-05-27 03:03:00,
2013-05-26 22:18:00,51.7,51.0,29.95,ESE,115,11.0,27.0,97,0.07,,,0.99,weatherlink.com 1.10,2013-05-27 03:18:00,
2013-05-26 22:33:00,51.8,51.0,29.94,East,81,11.0,27.0,97,0.05,,,0.99,weatherlink.com 1.10,2013-05-27 03:33:00,
2013-05-26 22:48:00,51.7,51.0,29.92,ENE,72,19.0,28.0,97,0.03,,,0.99,weatherlink.com 1.10,2013-05-27 03:48:00,
2013-05-26 23:03:00,51.7,51.0,29.91,East,91,23.0,23.0,97,0.00,,,0.99,weatherlink.com 1.10,2013-05-27 04:03:00,
2013-05-26 23:18:00,51.7,51.0,29.87,SSE,151,13.0,26.0,97,0.00,,,0.99,weatherlink.com 1.10,2013-05-27 04:18:00,
2013-05-26 23:33:00,52.0,51.0,29.89,ESE,105,30.0,30.0,97,0.00,,,0.99,weatherlink.com 1.10,2013-05-27 04:33:00,
2013-05-26 23:48:00,52.0,51.0,29.90,SE,140,20.0,35.0,97,0.00,,,0.99,weatherlink.com 1.10,2013-05-27 04:48:00,